QPF
0.00 0.00 0.00 0.00 0.00 0.00 0.00 0.00 0.00 0.00 0.00 0.00 0.00 0.00 0.00 0.00 0.00 0.00 0.00 0.00 0.00 0.00 0.00 0.00 0.00 0.00 0.00 0.00 0.00 0.00 0.00 0.00 0.00 0.00 0.00 0.00 0.00 0.00 0.00 0.00 0.00 0.00 0.00 0.00 0.00
0.00 0.00 0.00 0.00 0.00 0.00 0.00 0.00 0.00 0.00 0.00 0.00 0.00 0.00 0.00 0.00 0.00 0.00 0.00 0.00 0.00 0.00 0.00 0.00 0.00 0.00 0.00 0.00 0.00 0.00 0.00 0.00 0.00 0.00 0.00 0.00 0.00 0.00 0.00 0.01 0.00 0.00 0.00 0.00 0.00
0.00 0.00 0.00 0.00 0.00 0.00 0.00 0.00 0.00 0.00 0.00 0.00 0.00 0.00 0.00 0.00 0.00 0.00 0.00 0.00 0.00 0.00 0.00 0.00 0.00 0.00 0.00 0.00 0.00 0.00 0.00 0.00 0.00 0.00 0.00 0.00 0.00 0.00 0.00 0.00 0.00 0.00 0.00 0.00 0.00
0.00 0.00 0.00 0.00 0.00 0.00 0.00 0.00 0.00 0.00 0.00 0.00 0.00 0.00 0.00 0.00 0.00 0.00 0.00 0.00 0.00 0.00 0.00 0.00 0.00 0.00 0.00 0.00 0.00 0.00 0.00 0.00 0.00 0.00 0.00 0.00 0.00 0.00 0.00 0.00 0.00 0.00 0.00 0.00 0.00
0.00 0.00 0.00 0.00 0.00 0.00 0.00 0.00 0.00 0.00 0.00 0.00 0.00 0.00 0.00 0.00 0.00 0.00 0.00 0.00 0.00 0.00 0.00 0.00 0.00 0.00 0.00 0.00 0.00 0.00 0.00 0.00 0.00 0.00 0.00 0.00 0.00 0.00 0.00 0.00 0.00 0.00 0.00 0.00 0.00
0.00 0.00 0.00 0.00 0.00 0.00 0.00 0.00 0.00 0.00 0.00 0.00 0.00 0.00 0.00 0.00 0.00 0.00 0.00 0.00 0.00 0.00 0.00 0.00 0.00 0.00 0.00 0.00 0.00 0.00 0.00 0.00 0.00 0.00 0.00 0.00 0.00 0.00 0.00 0.00 0.00 0.00 0.00 0.00 0.00
0.00 0.00 0.00 0.00 0.00 0.00 0.00 0.00 0.00 0.00 0.00 0.00 0.00 0.00 0.00 0.00 0.00 0.00 0.00 0.00 0.00 0.00 0.00 0.00 0.00 0.00 0.00 0.00 0.00 0.00 0.00 0.00 0.00 0.00 0.00 0.00 0.00 0.00 0.00 0.00 0.00 0.00 0.00 0.00 0.00
0.00 0.00 0.00 0.00 0.00 0.00 0.00 0.00 0.00 0.00 0.00 0.00 0.00 0.00 0.00 0.00 0.00 0.00 0.00 0.00 0.00 0.00 0.00 0.00 0.00 0.00 0.00 0.00 0.00 0.00 0.00 0.00 0.00 0.00 0.00 0.00 0.00 0.00 0.00 0.00 0.08 0.02 0.00 0.00 0.00
0.00 0.00 0.00 0.00 0.00 0.00 0.00 0.00 0.00 0.00 0.00 0.00 0.00 0.00 0.00 0.00 0.00 0.00 0.00 0.00 0.00 0.00 0.00 0.00 0.00 0.00 0.00 0.00 0.00 0.00 0.00 0.00 0.00 0.00 0.00 0.00 0.00 0.00 0.00 0.00 0.06 0.01 0.01 0.00 0.00
0.00 0.00 0.00 0.00 0.00 0.00 0.00 0.00 0.00 0.00 0.00 0.00 0.00 0.00 0.00 0.00 0.00 0.00 0.00 0.00 0.00 0.00 0.00 0.00 0.00 0.00 0.00 0.00 0.00 0.00 0.00 0.00 0.00 0.00 0.00 0.00 0.00 0.00 0.00 0.00 0.02 0.02 0.01 0.00 0.01
0.00 0.00 0.00 0.00 0.00 0.00 0.00 0.00 0.00 0.00 0.00 0.00 0.00 0.00 0.00 0.00 0.00 0.00 0.00 0.00 0.00 0.00 0.00 0.00 0.00 0.00 0.00 0.00 0.00 0.00 0.00 0.00 0.00 0.00 0.00 0.00 0.00 0.00 0.00 0.00 0.04 0.04 0.04 0.00 0.00
0.00 0.00 0.00 0.00 0.00 0.00 0.00 0.00 0.00 0.00 0.00 0.00 0.00 0.00 0.00 0.00 0.00 0.00 0.00 0.00 0.00 0.00 0.00 0.00 0.00 0.00 0.00 0.00 0.00 0.00 0.00 0.00 0.00 0.00 0.00 0.00 0.01 0.01 0.00 0.00 0.00 0.03 0.08 0.08 0.06
0.00 0.00 0.00 0.00 0.00 0.00 0.00 0.00 0.00 0.00 0.00 0.00 0.00 0.00 0.00 0.00 0.00 0.00 0.00 0.00 0.00 0.00 0.00 0.00 0.00 0.00 0.00 0.00 0.00 0.00 0.00 0.00 0.00 0.00 0.00 0.00 0.02 0.04 0.02 0.03 0.01 0.00 0.01 0.08 0.04
0.00 0.00 0.00 0.00 0.00 0.00 0.00 0.00 0.00 0.00 0.00 0.00 0.00 0.00 0.00 0.00 0.00 0.00 0.00 0.00 0.00 0.00 0.00 0.00 0.00 0.00 0.00 0.00 0.00 0.00 0.00 0.00 0.00 0.00 0.00 0.00 0.00 0.00 0.01 0.04 0.04 0.00 0.00 0.01 0.01
0.00 0.00 0.00 0.00 0.00 0.00 0.00 0.00 0.00 0.00 0.00 0.00 0.00 0.00 0.00 0.00 0.00 0.00 0.00 0.00 0.00 0.00 0.00 0.00 0.00 0.00 0.00 0.00 0.00 0.00 0.00 0.00 0.00 0.00 0.00 0.00 0.00 0.00 0.00 0.03 0.01 0.00 0.00 0.01 0.01
0.00 0.00 0.00 0.00 0.00 0.00 0.00 0.00 0.00 0.00 0.00 0.00 0.00 0.00 0.00 0.00 0.00 0.00 0.00 0.00 0.00 0.00 0.00 0.00 0.00 0.00 0.00 0.00 0.00 0.00 0.00 0.00 0.00 0.00 0.00 0.00 0.00 0.00 0.00 0.00 0.00 0.00 0.00 0.00 0.00
0.00 0.00 0.00 0.00 0.00 0.00 0.00 0.00 0.00 0.00 0.00 0.00 0.00 0.00 0.00 0.00 0.00 0.00 0.00 0.00 0.00 0.00 0.00 0.00 0.00 0.00 0.00 0.00 0.00 0.00 0.00 0.00 0.00 0.00 0.00 0.00 0.00 0.00 0.00 0.00 0.00 0.00 0.00 0.01 0.01
0.00 0.00 0.00 0.00 0.00 0.00 0.00 0.00 0.00 0.00 0.00 0.00 0.00 0.00 0.00 0.00 0.00 0.00 0.00 0.00 0.00 0.00 0.00 0.00 0.00 0.00 0.00 0.00 0.00 0.00 0.00 0.00 0.00 0.00 0.01 0.04 0.01 0.05 0.09 0.04 0.00 0.03 0.05 0.03 0.03
0.00 0.00 0.00 0.00 0.00 0.00 0.00 0.00 0.00 0.00 0.00 0.00 0.00 0.00 0.00 0.00 0.00 0.00 0.00 0.00 0.00 0.00 0.00 0.00 0.00 0.00 0.00 0.00 0.00 0.00 0.00 0.00 0.00 0.01 0.03 0.03 0.06 0.11 0.20 0.10 0.02 0.02 0.01 0.00 0.00
0.00 0.00 0.00 0.00 0.00 0.00 0.00 0.00 0.00 0.00 0.00 0.00 0.00 0.00 0.00 0.00 0.00 0.00 0.00 0.00 0.00 0.00 0.00 0.00 0.00 0.00 0.00 0.00 0.00 0.00 0.00 0.00 0.00 0.01 0.04 0.03 0.07 0.09 0.17 0.17 0.05 0.07 0.00 0.00 0.00
0.00 0.00 0.00 0.00 0.00 0.00 0.00 0.00 0.00 0.00 0.00 0.00 0.00 0.00 0.00 0.00 0.00 0.00 0.00 0.00 0.00 0.00 0.00 0.00 0.00 0.00 0.00 0.00 0.00 0.00 0.00 0.00 0.00 0.00 0.00 0.00 0.01 0.00 0.01 0.03 0.05 0.06 0.02 0.00 0.00
0.00 0.00 0.00 0.00 0.00 0.00 0.00 0.00 0.00 0.00 0.00 0.00 0.00 0.00 0.00 0.00 0.00 0.00 0.00 0.00 0.00 0.00 0.00 0.00 0.00 0.00 0.00 0.00 0.00 0.00 0.00 0.00 0.00 0.00 0.00 0.00 0.01 0.00 0.01 0.00 0.03 0.04 0.00 0.00 0.00
0.00 0.00 0.00 0.00 0.00 0.00 0.00 0.00 0.00 0.00 0.00 0.00 0.00 0.00 0.00 0.00 0.00 0.00 0.00 0.00 0.00 0.00 0.00 0.00 0.00 0.00 0.00 0.00 0.00 0.01 0.01 0.01 0.00 0.00 0.01 0.01 0.02 0.00 0.03 0.01 0.01 0.00 0.00 0.00 0.00
0.00 0.00 0.00 0.00 0.00 0.00 0.00 0.00 0.00 0.00 0.00 0.00 0.00 0.00 0.00 0.00 0.00 0.00 0.00 0.00 0.00 0.00 0.00 0.00 0.00 0.00 0.00 0.00 0.00 0.00 0.00 0.01 0.00 0.01 0.01 0.02 0.01 0.01 0.00 0.00 0.00 0.00 0.00 0.00 0.00
0.00 0.01 0.01 0.00 0.00 0.00 0.00 0.00 0.00 0.00 0.00 0.00 0.00 0.00 0.00 0.00 0.00 0.00 0.00 0.00 0.00 0.00 0.00 0.00 0.00 0.00 0.00 0.00 0.00 0.00 0.00 0.01 0.02 0.03 0.01 0.02 0.01 0.00 0.00 0.00 0.00 0.00 0.00 0.00 0.00
0.00 0.01 0.03 0.00 0.00 0.00 0.00 0.00 0.00 0.00 0.00 0.00 0.00 0.00 0.00 0.00 0.00 0.00 0.01 0.01 0.00 0.00 0.00 0.00 0.00 0.00 0.00 0.00 0.00 0.00 0.00 0.00 0.00 0.00 0.00 0.00 0.03 0.10 0.07 0.03 0.00 0.00 0.00 0.00 0.00
0.00 0.00 0.01 0.00 0.00 0.00 0.00 0.00 0.00 0.00 0.00 0.00 0.00 0.00 0.00 0.00 0.00 0.00 0.00 0.00 0.00 0.01 0.01 0.00 0.00 0.00 0.00 0.03 0.04 0.02 0.02 0.00 0.00 0.01 0.01 0.00 0.00 0.01 0.01 0.02 0.00 0.00 0.00 0.00 0.00
MSLP
1017.72 1017.32 1016.90 1016.51 1016.09 1015.64 1015.21 1014.86 1014.42 1014.08 1013.75 1013.40 1013.09 1012.76 1012.40 1011.98 1010.95 1010.32 1008.98 1006.75 1006.34 1006.14 1006.11 1005.65 1005.38 1004.91 1004.74 1004.24 1004.03 1003.38 1004.74 1004.74 1004.02 1004.06 1004.14 1004.54 1004.83 1004.72 1005.42 1005.81 1005.89 1006.30 1007.48 1008.47 1009.13
1017.78 1017.36 1016.94 1016.49 1016.01 1015.57 1015.14 1014.76 1014.33 1013.89 1013.57 1013.29 1013.03 1012.71 1012.40 1012.06 1011.12 1009.01 1006.27 1006.06 1005.93 1005.90 1005.73 1005.53 1004.98 1004.51 1004.07 1003.42 1003.05 1003.06 1003.80 1003.44 1003.14 1003.34 1003.46 1004.09 1004.62 1005.41 1006.19 1006.44 1007.00 1007.67 1008.40 1008.87 1009.35
1017.88 1017.41 1016.95 1016.46 1015.93 1015.38 1014.93 1014.60 1014.23 1013.74 1013.39 1013.17 1012.94 1012.64 1012.37 1012.16 1010.70 1006.70 1004.96 1005.74 1005.80 1005.69 1005.87 1005.69 1004.90 1004.29 1003.33 1002.73 1002.23 1002.39 1002.87 1002.88 1002.86 1002.83 1003.08 1004.09 1005.27 1005.12 1005.76 1006.62 1006.86 1007.80 1008.46 1009.04 1009.52
1017.91 1017.40 1016.86 1016.40 1015.92 1015.34 1014.84 1014.34 1014.02 1013.62 1013.22 1013.01 1012.81 1012.54 1012.33 1011.85 1008.93 1005.47 1005.29 1005.66 1005.80 1005.63 1005.83 1005.33 1004.45 1004.06 1003.02 1002.23 1001.80 1002.01 1002.23 1002.47 1002.52 1002.49 1003.38 1004.90 1005.50 1005.20 1005.72 1006.66 1006.99 1007.68 1008.22 1008.84 1009.23
1017.80 1017.31 1016.78 1016.23 1015.69 1015.27 1014.75 1014.15 1013.72 1013.41 1012.98 1012.80 1012.64 1012.42 1012.01 1010.63 1007.05 1005.08 1005.30 1005.68 1005.85 1005.72 1005.50 1005.32 1004.63 1003.39 1002.52 1001.83 1001.76 1001.77 1002.06 1002.22 1002.15 1003.03 1003.83 1004.10 1006.01 1006.03 1006.38 1007.05 1007.58 1007.91 1008.41 1008.91 1009.30
1017.70 1017.18 1016.60 1016.01 1015.40 1014.86 1014.39 1013.93 1013.54 1013.13 1012.73 1012.55 1012.44 1012.37 1011.68 1008.47 1004.54 1004.69 1005.19 1005.60 1005.48 1005.46 1004.93 1004.60 1003.77 1002.58 1002.37 1001.95 1001.83 1001.76 1002.02 1002.15 1002.39 1003.42 1004.12 1004.90 1006.06 1005.71 1006.89 1007.14 1007.90 1008.23 1008.60 1008.93 1009.24
1017.58 1017.00 1016.42 1015.86 1015.25 1014.65 1014.10 1013.60 1013.16 1012.81 1012.48 1012.32 1012.27 1011.93 1010.26 1006.76 1004.09 1004.39 1004.86 1004.94 1004.98 1004.90 1004.72 1003.77 1002.79 1003.13 1003.04 1002.48 1001.86 1001.87 1002.38 1002.35 1002.60 1003.29 1005.19 1005.17 1006.89 1006.75 1006.80 1006.94 1007.85 1008.37 1008.63 1008.58 1008.85
1017.38 1016.81 1016.26 1015.70 1015.01 1014.35 1013.81 1013.22 1012.72 1012.37 1012.11 1012.03 1012.12 1011.47 1008.50 1004.51 1004.12 1004.19 1004.45 1004.69 1004.66 1004.43 1004.40 1003.79 1003.18 1003.36 1003.23 1002.51 1002.10 1002.34 1002.51 1002.91 1002.90 1003.25 1004.27 1004.89 1006.70 1006.66 1006.59 1007.79 1010.22 1008.81 1008.33 1008.41 1008.80
1017.20 1016.60 1015.99 1015.38 1014.77 1014.06 1013.37 1012.62 1012.04 1011.76 1011.75 1011.88 1011.88 1010.83 1007.01 1004.19 1004.09 1003.88 1004.04 1004.35 1004.33 1004.21 1004.06 1003.70 1003.81 1004.09 1003.60 1003.49 1003.25 1002.99 1003.27 1003.00 1003.45 1003.38 1004.23 1005.42 1006.92 1006.93 1007.73 1007.86 1010.63 1009.62 1008.73 1008.08 1008.44
1017.09 1016.48 1015.86 1015.24 1014.67 1014.00 1013.04 1011.63 1011.25 1011.34 1011.32 1011.20 1010.41 1009.57 1006.13 1004.02 1003.67 1003.58 1003.63 1003.77 1004.20 1004.35 1004.38 1004.24 1004.45 1004.55 1004.33 1004.22 1003.79 1003.30 1003.22 1003.28 1003.41 1003.90 1004.65 1006.38 1008.04 1008.02 1008.74 1008.66 1009.71 1009.96 1008.79 1006.97 1007.55
1016.93 1016.28 1015.65 1015.00 1014.50 1014.14 1013.06 1011.25 1011.32 1010.89 1010.04 1008.46 1007.04 1005.62 1003.77 1003.21 1003.02 1003.33 1003.45 1003.66 1003.91 1004.37 1004.75 1004.51 1004.98 1004.69 1003.98 1003.77 1002.71 1003.02 1003.46 1002.99 1003.65 1004.10 1006.49 1008.10 1009.15 1009.48 1008.85 1009.52 1012.06 1011.34 1010.50 1007.23 1007.34
1016.70 1016.08 1015.39 1014.70 1014.06 1013.93 1014.04 1011.81 1008.17 1007.05 1006.87 1006.13 1005.25 1004.61 1003.22 1002.63 1003.16 1003.22 1003.19 1003.92 1004.10 1004.56 1004.67 1004.83 1004.45 1003.40 1003.04 1002.71 1002.68 1002.68 1002.94 1003.07 1003.86 1005.58 1007.10 1008.77 1010.30 1010.35 1009.48 1008.82 1009.11 1009.63 1008.29 1009.09 1009.91
1016.55 1015.91 1015.18 1014.23 1013.29 1012.96 1011.67 1009.28 1006.99 1006.45 1006.26 1004.28 1003.34 1003.22 1002.38 1002.58 1002.64 1002.76 1003.20 1003.72 1004.16 1004.47 1004.53 1004.34 1003.20 1002.55 1002.45 1002.21 1002.47 1002.58 1002.70 1002.91 1003.97 1005.88 1008.01 1009.01 1011.64 1011.82 1010.51 1009.55 1007.61 1006.88 1007.31 1008.77 1010.19
1016.30 1015.75 1015.20 1013.98 1012.93 1011.62 1009.53 1006.99 1006.55 1006.09 1005.83 1003.18 1001.98 1001.88 1001.83 1002.29 1002.40 1002.04 1002.69 1003.35 1003.68 1003.97 1003.96 1003.63 1002.48 1002.28 1001.88 1001.97 1002.16 1002.31 1002.12 1002.64 1003.66 1005.53 1007.91 1008.94 1012.43 1012.94 1011.85 1010.79 1008.99 1008.56 1007.75 1009.72 1010.09
1016.06 1015.56 1015.15 1015.34 1013.98 1011.64 1008.07 1006.80 1006.33 1006.22 1005.13 1001.13 1001.06 1000.19 1001.11 1002.05 1001.35 1001.93 1002.22 1002.78 1003.04 1003.20 1003.51 1002.66 1002.06 1001.59 1001.34 1001.53 1001.71 1001.95 1001.97 1002.74 1003.79 1005.68 1007.57 1010.01 1012.10 1013.08 1012.75 1011.01 1009.47 1008.98 1008.45 1009.00 1009.99
1015.67 1015.36 1014.97 1013.69 1014.06 1010.21 1008.35 1007.60 1006.96 1006.51 1003.43 1000.90 1000.60 1000.79 1001.44 1001.74 1001.63 1001.83 1002.32 1002.59 1002.44 1002.91 1002.74 1002.14 1001.39 1000.95 1000.81 1000.85 1001.18 1001.71 1002.34 1003.26 1004.40 1006.32 1009.12 1010.37 1011.86 1013.99 1013.54 1011.58 1010.11 1009.54 1009.03 1009.13 1010.00
1014.90 1014.77 1015.01 1013.84 1010.85 1008.62 1008.18 1007.64 1007.37 1005.10 1000.84 1000.76 1000.74 1000.97 1001.46 1001.73 1001.85 1002.04 1002.68 1002.86 1003.02 1003.15 1003.08 1001.96 1001.20 1000.58 1000.46 1000.92 1001.21 1001.92 1003.19 1004.46 1006.53 1008.55 1012.04 1012.13 1012.75 1013.31 1012.45 1011.35 1010.13 1009.88 1009.61 1009.91 1010.36
1013.76 1013.49 1012.46 1011.37 1009.77 1009.34 1008.70 1008.20 1006.53 1002.41 1000.59 999.84 1000.14 1000.73 1001.40 1001.46 1001.57 1001.96 1002.59 1003.05 1002.78 1002.81 1002.79 1002.13 1001.29 1000.45 1000.26 1000.81 1001.56 1002.18 1003.26 1004.80 1007.15 1009.47 1012.09 1013.20 1014.33 1014.37 1013.95 1012.30 1010.62 1010.69 1010.39 1010.26 1011.20
1012.86 1011.13 1010.63 1008.61 1009.48 1009.93 1009.22 1007.84 1004.58 1002.08 1000.56 999.09 999.67 1000.46 1001.07 1001.08 1001.04 1001.52 1001.92 1002.40 1002.08 1001.81 1002.35 1001.67 1001.01 999.39 999.88 1000.21 1001.05 1001.88 1003.08 1004.46 1006.78 1009.08 1012.99 1015.24 1014.99 1014.27 1014.34 1013.09 1012.43 1011.59 1011.46 1011.42 1011.81
1012.95 1010.63 1007.92 1006.67 1008.13 1008.76 1008.55 1006.54 1004.10 1001.67 1000.50 999.14 999.36 999.78 1000.45 1000.63 1000.89 1001.19 1001.28 1000.95 1000.86 1000.53 1000.66 1000.86 1001.24 1000.40 1000.21 1000.23 1000.71 1001.66 1003.02 1004.99 1007.66 1010.95 1013.74 1015.56 1015.33 1014.03 1014.90 1013.29 1013.34 1013.06 1012.15 1012.31 1012.51
1012.59 1009.38 1005.52 1006.22 1007.37 1007.97 1007.27 1005.29 1003.25 1001.34 1000.20 999.48 999.39 999.92 999.98 1000.19 1000.35 1000.60 1000.45 999.93 999.56 999.56 999.88 1000.36 1000.95 1001.34 1001.23 1001.36 1001.98 1002.38 1003.81 1005.89 1008.96 1011.56 1013.44 1015.02 1014.95 1014.07 1013.82 1013.38 1012.74 1013.63 1012.40 1012.27 1013.03
1012.08 1008.53 1005.31 1005.74 1006.94 1006.60 1005.77 1004.37 1002.52 1000.93 999.77 999.20 999.38 999.98 1000.32 1001.58 1001.77 1000.76 999.95 999.31 998.55 999.02 999.59 1000.05 1001.02 1002.36 1002.55 1003.72 1003.44 1004.86 1006.57 1007.51 1010.27 1012.59 1013.53 1014.38 1014.05 1012.46 1012.64 1012.20 1013.16 1013.06 1012.66 1012.64 1013.05
1012.95 1008.45 1005.26 1005.47 1005.91 1005.57 1004.47 1003.21 1002.09 1000.82 999.72 999.49 999.58 999.91 1000.75 1001.76 1003.90 1001.67 1000.25 999.37 998.56 999.28 1000.23 1001.00 1002.03 1003.23 1003.28 1004.41 1004.29 1006.30 1007.42 1008.21 1010.28 1012.03 1014.49 1014.95 1014.04 1012.51 1012.67 1012.83 1013.23 1012.85 1012.52 1012.83 1013.55
1013.43 1009.09 1006.20 1005.83 1005.58 1005.21 1004.45 1002.92 1001.69 1000.33 1000.06 1000.00 1000.08 1000.00 1000.45 1001.90 1003.57 1003.24 1002.40 1001.72 1000.30 1000.88 1001.22 1001.54 1002.87 1004.57 1005.69 1006.95 1007.47 1007.65 1007.18 1008.00 1009.90 1011.92 1014.31 1015.59 1013.57 1012.72 1012.87 1012.94 1013.11 1012.38 1012.43 1013.04 1013.73
1012.58 1009.58 1008.95 1007.23 1006.10 1005.13 1004.29 1002.87 1001.54 1000.26 999.96 999.94 1000.28 1000.58 1001.12 1002.26 1003.59 1004.25 1004.81 1003.97 1002.94 1003.68 1003.23 1002.41 1004.07 1005.49 1007.05 1007.86 1008.10 1007.72 1007.52 1008.34 1009.87 1010.09 1012.30 1012.39 1012.43 1011.79 1011.82 1012.58 1012.76 1012.03 1012.60 1013.29 1014.24
1012.22 1010.99 1009.58 1008.14 1006.08 1004.32 1003.59 1002.76 1001.78 1000.74 1000.44 1000.16 1000.41 1000.74 1001.50 1002.90 1003.79 1005.80 1006.24 1006.39 1006.60 1005.78 1005.81 1004.21 1004.67 1005.83 1008.40 1008.85 1008.43 1008.14 1007.71 1007.66 1007.98 1008.61 1009.63 1009.78 1011.55 1011.07 1011.18 1011.88 1012.37 1012.41 1013.11 1013.96 1014.60
1013.50 1011.87 1010.64 1008.57 1006.60 1005.38 1003.88 1002.80 1001.89 1001.33 1000.62 1000.10 1000.03 1001.09 1002.04 1003.07 1003.40 1004.28 1005.20 1006.11 1005.70 1007.75 1007.32 1007.66 1006.77 1006.36 1009.12 1009.02 1008.85 1008.43 1007.86 1007.89 1007.82 1007.49 1008.63 1009.15 1010.13 1010.69 1011.38 1012.06 1012.57 1013.28 1013.70 1014.33 1014.95
Thickness
5769 5774 5778 5782 5786 5789 5793 5796 5799 5802 5804 5806 5808 5811 5814 5817 5826 5832 5832 5855 5861 5866 5869 5868 5867 5870 5874 5863 5869 5880 5819 5808 5831 5824 5830 5846 5834 5853 5853 5837 5840 5840 5824 5821 5822
5768 5773 5777 5781 5786 5790 5793 5797 5800 5803 5806 5807 5809 5812 5814 5817 5823 5833 5864 5867 5868 5870 5867 5860 5856 5862 5855 5862 5871 5855 5819 5836 5858 5854 5843 5847 5841 5836 5829 5829 5821 5820 5825 5824 5820
5766 5771 5776 5781 5786 5791 5795 5797 5800 5804 5807 5809 5810 5813 5815 5817 5821 5846 5876 5870 5871 5873 5868 5867 5871 5861 5851 5868 5875 5864 5834 5855 5860 5868 5866 5851 5834 5846 5831 5816 5825 5812 5815 5817 5814
5764 5769 5775 5780 5784 5790 5794 5798 5801 5804 5808 5810 5811 5813 5815 5818 5811 5865 5874 5872 5871 5873 5864 5861 5861 5847 5849 5854 5879 5850 5864 5865 5866 5872 5856 5836 5842 5843 5839 5828 5837 5829 5826 5822 5816
5762 5767 5773 5779 5784 5788 5793 5799 5802 5805 5809 5810 5812 5814 5818 5817 5833 5875 5874 5872 5870 5868 5858 5852 5848 5853 5846 5866 5870 5856 5864 5871 5875 5866 5856 5865 5831 5831 5836 5838 5838 5833 5826 5817 5816
5760 5765 5772 5778 5784 5789 5794 5799 5802 5805 5809 5811 5812 5813 5816 5810 5879 5878 5875 5870 5869 5864 5861 5861 5859 5874 5859 5866 5860 5871 5870 5869 5872 5857 5855 5843 5832 5844 5835 5842 5832 5828 5822 5821 5818
5757 5763 5769 5776 5782 5788 5794 5799 5803 5806 5809 5810 5811 5815 5818 5828 5881 5880 5876 5871 5873 5868 5856 5875 5882 5862 5860 5851 5882 5872 5849 5861 5865 5857 5836 5844 5817 5820 5838 5842 5831 5826 5825 5825 5823
5755 5761 5767 5773 5781 5787 5793 5799 5803 5806 5809 5810 5810 5814 5814 5874 5880 5876 5876 5868 5875 5877 5872 5882 5884 5868 5859 5872 5873 5854 5855 5820 5858 5865 5853 5841 5800 5828 5843 5829 5794 5821 5824 5825 5823
5753 5759 5765 5772 5778 5786 5792 5799 5805 5808 5808 5808 5808 5809 5815 5875 5859 5874 5876 5859 5866 5872 5876 5883 5873 5853 5856 5836 5823 5841 5805 5827 5835 5865 5854 5837 5808 5834 5832 5821 5787 5806 5815 5826 5825
5750 5756 5762 5769 5775 5781 5790 5802 5806 5807 5808 5809 5815 5802 5834 5840 5861 5870 5877 5872 5857 5857 5852 5853 5843 5828 5828 5816 5792 5812 5823 5836 5827 5848 5849 5824 5811 5826 5815 5817 5803 5805 5813 5833 5829
5746 5754 5760 5767 5772 5776 5786 5802 5799 5796 5807 5810 5821 5830 5849 5864 5874 5862 5870 5861 5858 5845 5815 5837 5811 5800 5821 5835 5847 5841 5832 5842 5844 5858 5815 5799 5800 5808 5820 5814 5778 5778 5790 5839 5833
5744 5751 5758 5766 5773 5775 5775 5790 5815 5826 5802 5830 5836 5840 5857 5866 5837 5851 5870 5836 5832 5811 5828 5817 5802 5839 5851 5858 5852 5846 5839 5834 5846 5829 5812 5807 5794 5804 5819 5818 5818 5814 5793 5819 5798
5741 5748 5756 5766 5776 5780 5790 5806 5835 5836 5798 5826 5846 5840 5850 5856 5837 5838 5853 5840 5825 5814 5819 5808 5830 5857 5857 5851 5839 5841 5834 5840 5833 5816 5811 5804 5771 5780 5810 5817 5837 5842 5841 5818 5799
5738 5745 5752 5765 5776 5787 5798 5828 5834 5838 5773 5810 5831 5844 5853 5851 5829 5866 5863 5844 5832 5814 5825 5824 5852 5847 5852 5842 5844 5817 5862 5862 5849 5826 5782 5819 5743 5766 5786 5795 5819 5822 5833 5806 5812
5735 5742 5748 5749 5762 5779 5809 5828 5834 5820 5732 5837 5837 5880 5860 5835 5847 5844 5869 5849 5822 5828 5832 5821 5838 5840 5840 5844 5855 5833 5862 5854 5848 5824 5812 5792 5753 5760 5772 5793 5814 5824 5829 5825 5815
5733 5739 5745 5757 5756 5789 5808 5816 5813 5760 5745 5822 5842 5833 5828 5836 5841 5849 5846 5858 5856 5834 5839 5839 5868 5862 5854 5864 5863 5865 5849 5838 5838 5814 5767 5789 5764 5743 5754 5784 5806 5817 5824 5828 5815
5734 5738 5740 5751 5774 5798 5805 5800 5753 5745 5837 5817 5819 5831 5824 5821 5828 5832 5822 5818 5807 5798 5800 5834 5843 5868 5873 5845 5856 5847 5825 5767 5762 5752 5730 5760 5760 5754 5780 5791 5811 5809 5817 5819 5820
5737 5744 5755 5767 5782 5789 5791 5767 5740 5806 5822 5850 5837 5831 5813 5826 5828 5828 5817 5803 5827 5823 5805 5796 5795 5845 5866 5845 5831 5830 5819 5770 5747 5743 5737 5741 5726 5740 5761 5780 5806 5805 5805 5814 5809
5740 5759 5763 5784 5780 5778 5767 5742 5772 5804 5832 5846 5838 5813 5810 5827 5831 5826 5818 5812 5828 5836 5801 5805 5812 5869 5868 5868 5853 5829 5807 5837 5785 5785 5734 5714 5726 5761 5758 5764 5773 5792 5797 5798 5801
5733 5753 5774 5793 5785 5776 5754 5754 5786 5822 5830 5845 5822 5828 5805 5819 5819 5818 5814 5838 5837 5855 5856 5833 5803 5851 5863 5871 5868 5846 5851 5788 5779 5729 5721 5711 5723 5732 5739 5761 5766 5768 5784 5786 5791
5733 5747 5789 5791 5784 5761 5744 5770 5797 5824 5833 5830 5822 5821 5830 5830 5831 5825 5825 5846 5858 5859 5861 5852 5829 5827 5850 5840 5826 5827 5815 5808 5774 5753 5718 5707 5716 5747 5750 5762 5770 5760 5784 5787 5783
5730 5733 5787 5791 5746 5758 5759 5783 5804 5815 5835 5837 5837 5827 5821 5810 5806 5826 5831 5845 5877 5870 5843 5860 5831 5795 5814 5824 5837 5819 5793 5793 5750 5742 5733 5732 5720 5774 5768 5776 5764 5767 5778 5783 5782
5714 5744 5785 5782 5737 5753 5779 5791 5806 5808 5818 5825 5826 5836 5829 5803 5762 5821 5847 5867 5879 5863 5840 5843 5807 5778 5799 5806 5820 5790 5792 5786 5774 5754 5724 5722 5722 5767 5766 5766 5764 5773 5778 5778 5773
5708 5722 5753 5763 5767 5762 5764 5777 5786 5821 5819 5824 5818 5830 5826 5814 5791 5797 5811 5830 5867 5851 5848 5847 5820 5789 5757 5770 5776 5773 5796 5790 5762 5725 5708 5697 5735 5752 5755 5759 5763 5775 5775 5773 5765
5713 5726 5729 5725 5744 5760 5771 5780 5783 5793 5818 5823 5809 5815 5812 5797 5792 5788 5787 5803 5820 5811 5823 5832 5796 5788 5778 5777 5777 5782 5785 5787 5761 5757 5711 5732 5734 5756 5763 5758 5763 5774 5771 5765 5753
5706 5709 5729 5732 5753 5766 5770 5771 5779 5793 5798 5799 5798 5813 5808 5789 5792 5769 5776 5773 5769 5791 5789 5818 5788 5794 5759 5768 5768 5766 5779 5779 5779 5781 5767 5763 5742 5766 5771 5769 5761 5764 5759 5749 5745
5698 5713 5716 5729 5746 5749 5761 5773 5783 5796 5805 5814 5814 5801 5787 5789 5802 5799 5790 5780 5785 5765 5762 5757 5762 5782 5728 5750 5753 5744 5762 5762 5768 5781 5763 5748 5755 5765 5759 5757 5756 5747 5746 5741 5740